1517079600.42,60304,10.31,74202.5,-5.09,-31.11,-31.17,0,*5B
1517079601.66,60305,10.31,74204.3,-5.09,-31.11,-31.29,0,*57
1517079602.87,60306,10.31,74210.8,-5.09,-31.29,-31.29,0,*5F
1517079604.09,60307,10.31,74214.5,-5.09,-31.45,-31.45,0,*5E
1517079605.29,60308,10.31,74214.3,-5.09,-31.33,-31.33,0,*51
1517079606.5,60309,10.31,74218.3,-5.09,-31.33,-31.33,0,*50
1517079607.76,60310,10.31,74214.0,-5.11,-31.17,-31.23,0,*56
1517079608.96,60311,10.31,74214.3,-5.09,-31.05,-31.17,0,*5A
1517079610.17,60312,10.31,74216.5,-5.09,-31.29,-31.29,0,*5A
1517079611.45,60313,10.31,74216.8,-5.11,-31.51,-31.51,0,*52
1517079612.7,60314,10.31,74216.0,-5.09,-31.61,-31.45,0,*5A
1517079613.97,60315,10.31,74220.0,-5.11,-31.57,-31.57,0,*54
1517079615.21,60316,10.31,74212.8,-5.09,-31.45,-31.51,0,*5B
1517079616.47,60317,10.31,74214.3,-5.09,-31.61,-31.51,0,*5C
1517079617.7,60318,10.31,74220.8,-5.11,-31.67,-31.67,0,*59
1517079618.92,60319,10.31,74216.8,-5.11,-31.67,-31.67,0,*58
1517079620.18,60320,10.31,74214.5,-5.11,-31.57,-31.67,0,*51
1517079621.46,60321,10.31,74218.0,-5.11,-31.57,-31.57,0,*53
1517079622.74,60322,10.31,74218.5,-5.11,-31.51,-31.51,0,*50
1517079623.99,60323,10.31,74216.5,-5.11,-31.51,-31.45,0,*54
1517079625.24,60324,10.31,74216.8,-5.11,-31.67,-31.57,0,*55
1517079626.52,60325,10.31,74212.5,-5.11,-31.39,-31.51,0,*59
1517079627.8,60326,10.31,74218.5,-5.11,-31.39,-31.39,0,*54
1517079629.08,60327,10.31,74214.8,-5.11,-31.39,-31.39,0,*55
1517079630.29,60328,10.31,74216.5,-5.09,-31.29,-31.33,0,*58
1517079631.57,60329,10.31,74218.3,-5.11,-31.39,-31.39,0,*5B
1517079632.85,60330,10.31,74222.0,-5.11,-31.39,-31.51,0,*5D
1517079634.13,60331,10.31,74220.0,-5.11,-31.39,-31.39,0,*52
1517079635.34,60332,10.31,74220.8,-5.09,-31.17,-31.29,0,*55
1517079636.63,60333,10.31,74220.8,-5.11,-31.11,-31.23,0,*51
1517079637.88,60334,10.31,74222.8,-5.11,-31.11,-31.01,0,*56
1517079639.14,60335,10.31,74222.3,-5.11,-31.11,-31.01,0,*57
1517079640.41,60336,10.31,74210.8,-5.11,-31.11,-31.17,0,*53
1517079641.62,60337,10.31,74208.8,-5.09,-31.29,-31.29,0,*5D
1517079642.87,60338,10.31,74210.8,-5.11,-31.33,-31.39,0,*51
1517079644.13,60339,10.31,74208.8,-5.11,-31.23,-31.33,0,*5B
1517079645.39,60340,10.31,74200.5,-5.11,-31.33,-31.51,0,*50
1517079646.64,60341,10.31,74206.0,-5.11,-31.39,-31.67,0,*5E
1517079647.89,60342,10.31,74200.8,-5.09,-31.51,-31.51,0,*5F
1517079649.12,60343,10.31,74200.5,-5.09,-31.67,-31.57,0,*5D
1517079650.37,60344,10.31,74202.0,-5.11,-31.73,-31.67,0,*55
1517079651.61,60345,10.31,74206.3,-5.09,-31.67,-31.61,0,*5E
1517079652.86,60346,10.31,74210.5,-5.11,-31.67,-31.73,0,*57
1517079654.1,60347,10.31,74214.8,-5.11,-31.67,-31.73,0,*56
1517079655.36,60348,10.31,74216.5,-5.11,-31.57,-31.67,0,*5F
1517079656.64,60349,10.31,74216.3,-5.11,-31.73,-31.57,0,*5B
1517079657.89,60350,10.31,74220.3,-5.13,-31.39,-31.51,0,*59
1517079659.16,60351,10.31,74216.8,-5.13,-31.57,-31.51,0,*50
1517079660.39,60352,10.31,74216.5,-5.13,-31.57,-31.67,0,*56
1517079661.65,60353,10.31,74216.5,-5.17,-31.61,-31.61,0,*50
1517079662.91,60354,10.31,74216.8,-5.17,-31.61,-31.61,0,*57
1517079664.17,60355,10.31,74220.0,-5.17,-31.73,-31.61,0,*55
1517079665.44,60356,10.31,74220.8,-5.17,-31.57,-31.61,0,*50
1517079666.65,60357,10.31,74220.3,-5.13,-31.45,-31.45,0,*50
1517079667.89,60358,10.31,74224.3,-5.17,-31.39,-31.45,0,*50
1517079669.15,60359,10.31,74222.5,-5.17,-31.61,-31.61,0,*5A
1517079670.41,60360,10.31,74226.5,-5.13,-31.39,-31.51,0,*5A
1517079671.66,60361,10.31,74226.8,-5.17,-31.57,-31.57,0,*51
1517079672.92,60362,10.31,74226.5,-5.17,-31.39,-31.57,0,*5A
1517079674.15,60363,10.31,74226.5,-5.17,-31.45,-31.57,0,*50
1517079675.4,60364,10.31,74222.0,-5.17,-31.61,-31.57,0,*51
1517079676.66,60365,10.31,74220.0,-5.17,-31.39,-31.51,0,*5B
1517079677.88,60366,10.31,74222.3,-5.17,-31.45,-31.45,0,*56
1517079679.13,60367,10.31,74220.0,-5.17,-31.57,-31.57,0,*57
1517079680.39,60368,10.31,74220.8,-5.17,-31.57,-31.57,0,*58
1517079681.63,60369,10.31,74222.3,-5.17,-31.79,-31.61,0,*50
1517079682.88,60370,10.31,74220.3,-5.17,-31.91,-31.73,0,*5D
1517079684.14,60371,10.31,74216.5,-5.17,-31.73,-31.73,0,*50
1517079685.37,60372,10.31,74220.5,-5.17,-31.79,-31.73,0,*59
1517079686.6,60373,10.31,74220.5,-5.19,-31.79,-31.79,0,*5C
1517079687.86,60374,10.31,74222.5,-5.19,-31.61,-31.67,0,*5D
1517079689.12,60375,10.31,74220.8,-5.19,-31.45,-31.51,0,*5F
1517079690.38,60376,10.31,74222.5,-5.19,-31.45,-31.51,0,*5C
1517079691.67,60377,10.31,74220.5,-5.19,-31.51,-31.61,0,*5B
1517079692.96,60378,10.31,74220.3,-5.19,-31.61,-31.61,0,*57
1517079694.19,60379,10.31,74222.3,-5.19,-31.79,-31.67,0,*59
1517079695.47,60380,10.31,74220.8,-5.19,-31.51,-31.61,0,*53
1517079696.7,60381,10.31,74218.8,-5.19,-31.33,-31.33,0,*51
1517079697.96,60382,10.31,74216.3,-5.21,-31.51,-31.61,0,*5A
1517079699.25,60383,10.31,74214.0,-5.19,-31.51,-31.61,0,*50
1517079700.53,60384,10.31,74214.8,-5.19,-31.61,-31.61,0,*54
1517079701.79,60385,10.31,74222.0,-5.19,-31.67,-31.61,0,*53
1517079703.01,60386,10.31,74224.0,-5.21,-31.33,-31.45,0,*5C
1517079704.23,60387,10.31,74224.3,-5.21,-31.45,-31.45,0,*5C
1517079705.44,60388,10.31,74228.3,-5.21,-31.33,-31.33,0,*53
1517079706.72,60389,10.31,74228.0,-5.19,-31.23,-30.95,0,*55
1517079707.98,60390,10.31,74230.5,-5.19,-31.05,-30.95,0,*59
1517079709.27,60391,10.31,74228.5,-5.19,-30.89,-30.77,0,*51
1517079710.56,60392,10.31,74226.8,-5.19,-30.77,-30.77,0,*53
1517079711.85,60393,10.31,74230.8,-5.19,-30.61,-30.77,0,*55
1517079713.15,60394,10.31,74224.3,-5.19,-30.95,-30.89,0,*58
1517079714.38,60395,10.31,74226.0,-5.17,-30.55,-30.67,0,*5B
1517079715.62,60396,10.31,74220.0,-5.17,-30.73,-30.83,0,*56
1517079716.86,60397,10.31,74226.8,-5.17,-30.89,-30.83,0,*52
1517079718.13,60398,10.31,74226.3,-5.17,-30.89,-30.89,0,*57
1517079719.42,60399,10.31,74226.3,-5.11,-30.77,-30.77,0,*50
1517079720.66,60400,10.31,74224.5,-5.11,-30.67,-30.67,0,*57
1517079721.95,60401,10.31,74228.3,-5.11,-30.77,-30.77,0,*56
1517079723.24,60402,10.31,74224.5,-5.11,-30.77,-30.77,0,*55
1517079724.5,60403,10.31,74226.3,-5.11,-30.83,-30.95,0,*53
1517079725.74,60404,10.31,74228.3,-5.11,-30.83,-30.83,0,*53
1517079726.96,60405,10.31,74228.3,-5.11,-31.01,-31.01,0,*52
1517079728.19,60406,10.31,74226.5,-5.11,-31.01,-31.01,0,*51
1517079729.44,60407,10.31,74222.0,-5.11,-31.01,-31.11,0,*51
1517079730.7,60408,10.31,74222.5,-5.09,-30.95,-30.95,0,*56
1517079731.95,60409,10.31,74218.5,-5.11,-31.01,-31.11,0,*5F
1517079733.19,60410,10.31,74216.8,-5.11,-30.67,-30.83,0,*5C
1517079734.43,60411,10.31,74218.3,-5.11,-30.67,-30.67,0,*57
1517079735.69,60412,10.31,74212.0,-5.09,-30.55,-30.61,0,*5A
1517079736.97,60413,10.31,74218.5,-5.11,-30.51,-30.61,0,*56
1517079738.24,60414,10.31,74218.0,-5.09,-30.73,-30.61,0,*58
1517079739.5,60415,10.31,74214.0,-5.09,-30.77,-30.77,0,*5A
1517079740.77,60416,10.31,74210.5,-5.07,-30.67,-30.73,0,*52
1517079742.03,60417,10.31,74208.0,-5.07,-30.83,-30.89,0,*5C
1517079743.26,60418,10.31,74206.0,-5.07,-31.01,-31.05,0,*5D
1517079744.49,60419,10.31,74204.3,-5.07,-31.01,-31.01,0,*58
1517079745.74,60420,10.31,74208.8,-5.07,-31.05,-31.23,0,*56
1517079746.95,60421,10.31,74202.8,-5.09,-31.17,-31.29,0,*50
1517079748.16,60422,10.31,74206.8,-5.09,-31.33,-31.45,0,*5F
1517079749.37,60423,10.31,74206.5,-5.09,-31.29,-31.33,0,*54
1517079750.58,60424,10.31,74206.5,-5.09,-31.33,-31.45,0,*59
1517079751.8,60425,10.31,74208.3,-5.09,-31.45,-31.45,0,*59
1517079753.02,60426,10.31,74208.0,-5.09,-31.45,-31.45,0,*5A
1517079754.26,60427,10.31,74206.3,-5.09,-31.45,-31.51,0,*5E
1517079755.53,60428,10.31,74210.3,-5.11,-31.51,-31.57,0,*5B
1517079756.79,60429,10.31,74210.5,-5.09,-31.51,-31.51,0,*55
1517079758.02,60430,10.31,74208.5,-5.09,-31.51,-31.45,0,*58
1517079759.3,60431,10.31,74206.8,-5.11,-31.51,-31.51,0,*55
1517079760.58,60432,10.31,74206.3,-5.11,-31.39,-31.39,0,*56
1517079761.82,60433,10.31,74202.3,-5.09,-31.45,-31.51,0,*5B
1517079763.1,60434,10.31,74208.5,-5.11,-31.57,-31.51,0,*56
1517079764.39,60435,10.31,74216.5,-5.11,-31.57,-31.51,0,*57
1517079765.64,60436,10.31,74218.3,-5.11,-31.67,-31.57,0,*51
1517079766.92,60437,10.31,74214.0,-5.11,-31.57,-31.57,0,*53
1517079768.19,60438,10.31,74214.5,-5.11,-31.51,-31.57,0,*5A
1517079769.46,60439,10.31,74218.0,-5.11,-31.39,-31.57,0,*55
1517079770.74,60440,10.31,74216.8,-5.11,-31.39,-31.57,0,*5B
1517079772.0,60441,10.31,74218.3,-5.13,-31.39,-31.39,0,*50
1517079773.25,60442,10.31,74216.5,-5.13,-31.51,-31.51,0,*53
1517079774.48,60443,10.31,74216.8,-5.13,-31.73,-31.67,0,*57
1517079775.71,60444,10.31,74220.5,-5.11,-31.67,-31.67,0,*57
1517079776.94,60445,10.31,74220.3,-5.13,-31.57,-31.67,0,*57
1517079778.2,60446,10.31,74218.5,-5.17,-31.73,-31.61,0,*50
1517079779.44,60447,10.31,74216.0,-5.13,-31.61,-31.67,0,*50
1517079780.67,60448,10.31,74218.8,-5.17,-31.45,-31.61,0,*5B
1517079781.91,60449,10.31,74214.5,-5.17,-31.39,-31.45,0,*57
1517079783.17,60450,10.31,74222.0,-5.13,-31.39,-31.51,0,*5E
1517079784.42,60451,10.31,74218.8,-5.13,-31.39,-31.39,0,*51
1517079785.68,60452,10.31,74216.0,-5.13,-31.51,-31.51,0,*52
1517079786.9,60453,10.31,74216.0,-5.17,-31.45,-31.45,0,*57
1517079788.15,60454,10.31,74216.5,-5.17,-31.39,-31.57,0,*58
1517079789.41,60455,10.31,74214.3,-5.17,-31.57,-31.57,0,*51
1517079790.66,60456,10.31,74216.0,-5.17,-31.61,-31.73,0,*51
1517079791.89,60457,10.31,74212.0,-5.17,-31.45,-31.57,0,*50
1517079793.15,60458,10.31,74212.8,-5.17,-31.57,-31.57,0,*5C
1517079794.38,60459,10.31,74212.8,-5.17,-31.45,-31.73,0,*58
1517079795.61,60460,10.31,74210.8,-5.17,-31.45,-31.57,0,*54
1517079796.88,60461,10.31,74208.0,-5.17,-31.57,-31.61,0,*53
1517079798.13,60462,10.31,74212.0,-5.17,-31.73,-31.73,0,*55
1517079799.39,60463,10.31,74214.0,-5.17,-31.57,-31.57,0,*54
1517079800.64,60464,10.31,74218.3,-5.17,-31.57,-31.57,0,*53
1517079801.91,60465,10.31,74214.8,-5.17,-31.57,-31.61,0,*57
1517079803.13,60466,10.31,74210.5,-5.19,-31.67,-31.67,0,*5F
1517079804.36,60467,10.31,74204.5,-5.21,-31.51,-31.67,0,*50
1517079805.62,60468,10.31,74208.5,-5.19,-31.61,-31.67,0,*57
1517079806.91,60469,10.31,74204.8,-5.19,-31.61,-31.61,0,*50
1517079808.19,60470,10.31,74206.0,-5.19,-31.51,-31.61,0,*5B
1517079809.4,60471,10.31,74208.0,-5.21,-31.67,-31.79,0,*5D
1517079810.63,60472,10.31,74206.8,-5.19,-31.67,-31.67,0,*5A
1517079811.88,60473,10.31,74204.0,-5.19,-31.51,-31.67,0,*5E
1517079813.11,60474,10.31,74200.0,-5.21,-31.51,-31.67,0,*52
1517079814.35,60475,10.31,74204.5,-5.21,-31.45,-31.51,0,*53
1517079815.57,60476,10.31,74210.8,-5.21,-31.45,-31.45,0,*55
1517079816.83,60477,10.31,74210.3,-5.21,-31.51,-31.61,0,*57
1517079818.1,60478,10.31,74206.8,-5.21,-31.61,-31.61,0,*5B
1517079819.36,60479,10.31,74214.5,-5.21,-31.51,-31.61,0,*59
1517079820.65,60480,10.31,74214.8,-5.19,-31.61,-31.61,0,*57
1517079821.89,60481,10.31,74212.5,-5.21,-31.45,-31.51,0,*58
1517079823.13,60482,10.31,74212.3,-5.21,-31.33,-31.51,0,*5A
1517079824.39,60483,10.31,74212.5,-5.21,-31.51,-31.61,0,*5C
1517079825.65,60484,10.31,74214.0,-5.21,-31.51,-31.61,0,*5B
1517079826.91,60485,10.31,74212.8,-5.21,-31.61,-31.61,0,*59
1517079828.18,60486,10.31,74212.5,-5.21,-31.61,-31.61,0,*5A
1517079829.42,60487,10.31,74210.0,-5.21,-31.45,-31.51,0,*5E
1517079830.65,60488,10.31,74210.5,-5.25,-31.57,-31.67,0,*53
1517079831.89,60489,10.31,74214.3,-5.25,-31.57,-31.67,0,*52
1517079833.15,60490,10.31,74214.0,-5.25,-31.57,-31.57,0,*59
1517079834.4,60491,10.31,74214.3,-5.25,-31.51,-31.57,0,*5E
1517079835.61,60492,10.31,74212.5,-5.25,-31.67,-31.67,0,*5B
1517079836.87,60493,10.31,74218.0,-5.25,-31.57,-31.57,0,*5A
1517079838.13,60494,10.31,74210.0,-5.25,-31.39,-31.39,0,*5D
1517079839.39,60495,10.31,74212.0,-5.25,-31.51,-31.51,0,*5C
1517079840.67,60496,10.31,74218.0,-5.27,-31.39,-31.51,0,*53
1517079841.9,60497,10.31,74216.0,-5.25,-31.51,-31.67,0,*5B
1517079843.16,60498,10.31,74218.3,-5.25,-31.51,-31.57,0,*57
1517079844.37,60499,10.31,74214.5,-5.25,-31.29,-31.33,0,*5B
1517079845.63,60500,10.31,74226.0,-5.25,-31.51,-31.51,0,*51
1517079846.89,60501,10.31,74226.3,-5.25,-31.57,-31.57,0,*50
1517079848.15,60502,10.31,74228.5,-5.25,-31.57,-31.57,0,*53
1517079849.41,60503,10.31,74224.8,-5.25,-31.39,-31.51,0,*5C
1517079850.67,60504,10.31,74222.5,-5.21,-31.23,-31.11,0,*50
1517079851.91,60505,10.31,74220.5,-5.25,-31.17,-31.11,0,*52
1517079853.18,60506,10.31,74220.5,-5.25,-31.11,-31.11,0,*57
1517079854.38,60507,10.31,74220.0,-5.25,-31.01,-31.01,0,*56
1517079855.65,60508,10.31,74224.5,-5.21,-30.95,-30.89,0,*50
1517079856.92,60509,10.31,74226.5,-5.21,-30.95,-30.89,0,*51
1517079858.19,60510,10.31,74222.8,-5.21,-30.89,-30.89,0,*54
1517079859.48,60511,10.31,74220.3,-5.19,-30.95,-30.89,0,*53
1517079860.77,60512,10.31,74220.3,-5.19,-30.77,-30.89,0,*5C
1517079862.04,60513,10.31,74216.5,-5.21,-30.95,-30.89,0,*5A
1517079863.3,60514,10.31,74220.3,-5.19,-31.05,-30.89,0,*5E
1517079864.59,60515,10.31,74218.5,-5.19,-31.11,-30.95,0,*57
1517079865.86,60516,10.31,74212.8,-5.21,-30.89,-30.77,0,*53
1517079867.15,60517,10.31,74216.8,-5.19,-30.73,-30.73,0,*58
1517079868.44,60518,10.31,74216.3,-5.19,-30.61,-30.73,0,*54
1517079869.72,60519,10.31,74216.3,-5.19,-30.73,-30.73,0,*56
1517079871.02,60520,10.31,74216.0,-5.19,-30.77,-30.77,0,*5C
1517079872.26,60521,10.31,74218.3,-5.17,-30.73,-30.83,0,*5C
1517079873.52,60522,10.31,74218.3,-5.17,-30.89,-30.89,0,*50
1517079874.76,60523,10.31,74222.5,-5.17,-31.01,-30.89,0,*50
1517079876.01,60524,10.31,74218.0,-5.17,-30.67,-30.77,0,*57
1517079877.22,60525,10.31,74212.5,-5.13,-30.67,-30.83,0,*59
1517079878.43,60526,10.31,74212.8,-5.13,-30.83,-31.01,0,*5B
1517079879.7,60527,10.31,74218.8,-5.17,-30.89,-30.89,0,*55
1517079880.96,60528,10.31,74216.3,-5.17,-30.89,-30.89,0,*5A
1517079882.2,60529,10.31,74214.5,-5.13,-30.95,-30.83,0,*58
1517079883.43,60530,10.31,74212.5,-5.13,-31.01,-30.95,0,*5B
1517079884.66,60531,10.31,74212.5,-5.13,-30.95,-31.01,0,*5A
1517079885.93,60532,10.31,74212.0,-5.11,-31.11,-31.17,0,*51
1517079887.19,60533,10.31,74214.5,-5.11,-31.11,-31.17,0,*50
1517079888.48,60534,10.31,74208.3,-5.11,-31.11,-31.11,0,*51
1517079889.74,60535,10.31,74208.5,-5.11,-31.11,-31.17,0,*56
1517079890.97,60536,10.31,74208.0,-5.11,-31.33,-31.33,0,*53
1517079892.22,60537,10.31,74208.5,-5.11,-31.33,-31.51,0,*56
1517079893.51,60538,10.31,74208.5,-5.11,-31.57,-31.51,0,*5B
1517079894.76,60539,10.31,74206.8,-5.13,-31.57,-31.57,0,*5E
1517079896.0,60540,10.31,74204.8,-5.13,-31.57,-31.67,0,*53
1517079897.25,60541,10.31,74204.5,-5.13,-31.57,-31.57,0,*51
1517079898.5,60542,10.31,74210.5,-5.13,-31.39,-31.57,0,*5A
1517079899.74,60543,10.31,74208.3,-5.17,-31.45,-31.61,0,*51
1517079900.98,60544,10.31,74210.0,-5.13,-31.45,-31.61,0,*52
1517079902.24,60545,10.31,74208.8,-5.17,-31.61,-31.61,0,*51
1517079903.47,60546,10.31,74210.0,-5.17,-31.45,-31.57,0,*51
1517079904.71,60547,10.31,74212.8,-5.17,-31.29,-31.39,0,*52
1517079905.94,60548,10.31,74218.3,-5.17,-31.39,-31.45,0,*57
1517079907.18,60549,10.31,74216.0,-5.17,-31.45,-31.57,0,*5E
1517079908.38,60550,10.31,74216.8,-5.17,-31.33,-31.33,0,*55
1517079909.65,60551,10.31,74218.3,-5.17,-31.23,-31.23,0,*54
1517079910.85,60552,10.31,74222.3,-5.13,-31.33,-31.33,0,*53
1517079912.07,60553,10.31,74220.3,-5.17,-31.45,-31.45,0,*56
1517079913.31,60554,10.31,74218.0,-5.17,-31.39,-31.45,0,*5A
1517079914.55,60555,10.31,74214.0,-5.17,-31.39,-31.45,0,*5B
1517079915.8,60556,10.31,74216.5,-5.17,-31.57,-31.57,0,*53
1517079917.06,60557,10.31,74214.5,-5.17,-31.57,-31.61,0,*57
1517079918.35,60558,10.31,74218.8,-5.19,-31.51,-31.51,0,*53
1517079919.61,60559,10.31,74220.0,-5.19,-31.45,-31.61,0,*54
1517079920.88,60560,10.31,74214.5,-5.19,-31.45,-31.61,0,*5E
1517079922.09,60561,10.31,74214.3,-5.17,-31.45,-31.45,0,*57
1517079923.36,60562,10.31,74210.8,-5.19,-31.45,-31.51,0,*5F
1517079924.64,60563,10.31,74212.5,-5.19,-31.51,-31.51,0,*5B
1517079925.9,60564,10.31,74208.5,-5.19,-31.45,-31.61,0,*5A
1517079927.17,60565,10.31,74216.5,-5.19,-31.45,-31.61,0,*5B
1517079928.43,60566,10.31,74220.5,-5.19,-31.45,-31.51,0,*5B
1517079929.68,60567,10.31,74220.5,-5.19,-31.45,-31.45,0,*5F
1517079930.94,60568,10.31,74218.0,-5.19,-31.45,-31.51,0,*55
1517079932.23,60569,10.31,74212.3,-5.19,-31.23,-31.23,0,*51
1517079933.45,60570,10.31,74214.0,-5.21,-31.29,-31.45,0,*58
1517079934.69,60571,10.31,74212.3,-5.19,-31.45,-31.45,0,*58
1517079935.95,60572,10.31,74214.3,-5.19,-31.51,-31.45,0,*5E
1517079937.24,60573,10.31,74218.3,-5.19,-31.61,-31.61,0,*5A
1517079938.52,60574,10.31,74214.8,-5.19,-31.51,-31.51,0,*5D
1517079939.81,60575,10.31,74218.5,-5.19,-31.61,-31.51,0,*5F
1517079941.05,60576,10.31,74212.5,-5.21,-31.45,-31.51,0,*51
1517079942.29,60577,10.31,74216.5,-5.19,-31.33,-31.45,0,*5F
1517079943.56,60578,10.31,74212.5,-5.21,-31.61,-31.51,0,*59
1517079944.8,60579,10.31,74214.5,-5.21,-31.45,-31.61,0,*5D
1517079946.04,60580,10.31,74216.8,-5.21,-31.45,-31.51,0,*58
1517079947.25,60581,10.31,74218.0,-5.21,-31.33,-31.45,0,*5D
1517079948.47,60582,10.31,74218.8,-5.21,-31.33,-31.45,0,*5E
1517079949.69,60583,10.31,74220.5,-5.21,-31.29,-31.45,0,*54
1517079950.91,60584,10.31,74214.0,-5.21,-31.45,-31.45,0,*59
1517079952.17,60585,10.31,74214.3,-5.19,-31.45,-31.61,0,*55
1517079953.42,60586,10.31,74214.5,-5.21,-31.45,-31.61,0,*5D
1517079954.65,60587,10.31,74212.3,-5.21,-31.33,-31.51,0,*5E
1517079955.89,60588,10.31,74212.0,-5.21,-31.45,-31.51,0,*50
1517079957.13,60589,10.31,74212.0,-5.21,-31.45,-31.51,0,*51
1517079958.37,60590,10.31,74208.0,-5.21,-31.33,-31.51,0,*58
1517079959.63,60591,10.31,74214.5,-5.21,-31.61,-31.61,0,*5D
1517079960.89,60592,10.31,74210.5,-5.25,-31.57,-31.57,0,*5A
1517079962.11,60593,10.31,74206.8,-5.21,-31.45,-31.45,0,*5F
1517079963.33,60594,10.31,74210.0,-5.21,-31.45,-31.45,0,*58
1517079964.58,60595,10.31,74212.5,-5.21,-31.45,-31.51,0,*5C
1517079965.82,60596,10.31,74212.0,-5.21,-31.45,-31.51,0,*5F
1517079967.08,60597,10.31,74212.5,-5.21,-31.51,-31.61,0,*58
1517079968.31,60598,10.31,74218.0,-5.25,-31.57,-31.67,0,*53
1517079969.57,60599,10.31,74214.5,-5.25,-31.57,-31.57,0,*51
1517079970.83,60600,10.31,74218.5,-5.25,-31.51,-31.51,0,*52
1517079972.07,60601,10.31,74220.0,-5.25,-31.57,-31.67,0,*50
1517079973.33,60602,10.31,74218.8,-5.25,-31.51,-31.51,0,*50
1517079974.58,60603,10.31,74218.8,-5.25,-31.39,-31.57,0,*59
1517079975.85,60604,10.31,74222.3,-5.25,-31.57,-31.51,0,*50
1517079977.06,60605,10.31,74218.8,-5.25,-31.29,-31.33,0,*5C
1517079978.29,60606,10.31,74212.3,-5.27,-31.29,-31.33,0,*5D
1517079979.52,60607,10.31,74218.3,-5.25,-31.39,-31.67,0,*5E
1517079980.78,60608,10.31,74218.5,-5.25,-31.39,-31.57,0,*52
1517079981.99,60609,10.31,74220.8,-5.25,-31.33,-31.33,0,*5B
1517079983.22,60610,10.31,74218.5,-5.21,-31.23,-31.33,0,*56
1517079984.47,60611,10.31,74222.5,-5.21,-31.45,-31.51,0,*53
1517079985.68,60612,10.31,74226.0,-5.25,-31.29,-31.33,0,*5A
1517079986.94,60613,10.31,74224.5,-5.25,-31.39,-31.51,0,*5E
1517079988.14,60614,10.31,74220.5,-5.25,-31.33,-31.33,0,*57
1517079989.38,60615,10.31,74222.3,-5.25,-31.33,-31.51,0,*52
1517079990.66,60616,10.31,74216.0,-5.27,-31.51,-31.57,0,*51
1517079991.89,60617,10.31,74214.8,-5.25,-31.67,-31.73,0,*51
1517079993.14,60618,10.31,74218.8,-5.27,-31.67,-31.73,0,*5C
1517079994.4,60619,10.31,74212.0,-5.27,-31.57,-31.67,0,*5B
1517079995.68,60620,10.31,74208.5,-5.27,-31.57,-31.73,0,*54
1517079996.96,60621,10.31,74204.0,-5.27,-31.57,-31.73,0,*55
1517079998.22,60622,10.31,74196.5,-5.27,-31.57,-31.67,0,*53
1517079999.5,60623,10.31,74194.8,-5.27,-31.51,-31.57,0,*57
1517080000.78,60624,10.31,74196.0,-5.27,-31.39,-31.51,0,*58
1517080002.06,60625,10.31,74206.0,-5.27,-31.51,-31.57,0,*51
1517080003.35,60626,10.31,74206.0,-5.27,-31.39,-31.39,0,*54
1517080004.62,60627,10.31,74202.3,-5.27,-31.51,-31.57,0,*53
1517080005.88,60628,10.31,74206.0,-5.27,-31.51,-31.67,0,*5F
1517080007.16,60629,10.31,74206.8,-5.27,-31.57,-31.57,0,*5B
1517080008.44,60630,10.31,74210.8,-5.27,-31.39,-31.57,0,*5B
1517080009.7,60631,10.31,74210.0,-5.29,-31.57,-31.73,0,*5A
1517080010.95,60632,10.31,74214.5,-5.27,-31.67,-31.73,0,*54
1517080012.24,60633,10.31,74212.3,-5.27,-31.51,-31.51,0,*50
1517080013.48,60634,10.31,74218.0,-5.29,-31.39,-31.45,0,*52
1517080014.74,60635,10.31,74212.0,-5.29,-31.39,-31.57,0,*50
1517080016.0,60636,10.31,74218.3,-5.29,-31.57,-31.73,0,*5D
1517080017.24,60637,10.31,74212.8,-5.29,-31.61,-31.79,0,*53
1517080018.48,60638,10.31,74218.8,-5.29,-31.61,-31.79,0,*5C
1517080019.75,60639,10.31,74214.5,-5.29,-31.73,-31.91,0,*58
1517080021.01,60640,10.31,74218.8,-5.31,-31.73,-31.79,0,*59
1517080022.25,60641,10.31,74216.5,-5.29,-31.61,-31.79,0,*52
1517080023.52,60642,10.31,74216.5,-5.29,-31.61,-31.61,0,*58
1517080024.77,60643,10.31,74214.5,-5.29,-31.45,-31.61,0,*5F
1517080026.03,60644,10.31,74212.0,-5.29,-31.61,-31.73,0,*5D
1517080027.28,60645,10.31,74212.5,-5.29,-31.45,-31.61,0,*59
1517080028.54,60646,10.31,74212.8,-5.29,-31.61,-31.73,0,*5F
1517080029.81,60647,10.31,74208.5,-5.29,-31.61,-31.61,0,*5D
1517080031.07,60648,10.31,74212.3,-5.29,-31.57,-31.73,0,*54
1517080032.36,60649,10.31,74210.5,-5.31,-31.57,-31.73,0,*5C
1517080033.63,60650,10.31,74212.0,-5.29,-31.57,-31.61,0,*5E
1517080034.92,60651,10.31,74214.3,-5.31,-31.57,-31.61,0,*56
1517080036.16,60652,10.31,74214.0,-5.31,-31.45,-31.45,0,*50
1517080037.41,60653,10.31,74216.3,-5.29,-31.39,-31.45,0,*53
1517080038.65,60654,10.31,74212.8,-5.29,-31.33,-31.23,0,*5E
1517080039.95,60655,10.31,74212.5,-5.31,-31.23,-31.23,0,*57
1517080041.21,60656,10.31,74212.8,-5.29,-31.39,-31.57,0,*55
1517080042.5,60657,10.31,74214.0,-5.31,-31.57,-31.61,0,*50
1517080043.76,60658,10.31,74208.3,-5.31,-31.33,-31.39,0,*50
1517080045.0,60659,10.31,74208.5,-5.29,-31.39,-31.45,0,*59
1517080046.27,60660,10.31,74210.0,-5.31,-31.39,-31.45,0,*5A
1517080047.55,60661,10.31,74212.3,-5.33,-31.51,-31.61,0,*51
1517080048.77,60662,10.31,74208.3,-5.29,-31.45,-31.45,0,*5A
1517080050.07,60663,10.31,74208.3,-5.31,-31.23,-31.23,0,*52
1517080051.31,60664,10.31,74212.5,-5.31,-31.33,-31.45,0,*54
1517080052.58,60665,10.31,74212.3,-5.29,-31.61,-31.57,0,*58
1517080053.83,60666,10.31,74212.5,-5.31,-31.33,-31.57,0,*55
1517080055.08,60667,10.31,74212.5,-5.31,-31.45,-31.45,0,*56
1517080056.37,60668,10.31,74208.8,-5.31,-31.57,-31.57,0,*59
1517080057.64,60669,10.31,74214.0,-5.29,-31.61,-31.61,0,*51
1517080058.92,60670,10.31,74212.5,-5.31,-31.73,-31.73,0,*50
1517080060.19,60671,10.31,74214.8,-5.29,-31.61,-31.61,0,*58
1517080061.48,60672,10.31,74214.8,-5.31,-31.57,-31.73,0,*54
1517080062.77,60673,10.31,74212.0,-5.31,-31.61,-31.61,0,*53
1517080064.06,60674,10.31,74214.8,-5.31,-31.57,-31.73,0,*52
1517080065.3,60675,10.31,74212.0,-5.31,-31.45,-31.45,0,*55
1517080066.6,60676,10.31,74216.0,-5.31,-31.57,-31.61,0,*53
1517080067.88,60677,10.31,74206.5,-5.31,-31.61,-31.73,0,*54
1517080069.15,60678,10.31,74204.5,-5.31,-31.45,-31.57,0,*5B
1517080070.4,60679,10.31,74206.5,-5.33,-31.61,-31.79,0,*52
1517080071.63,60680,10.31,74208.3,-5.33,-31.79,-31.79,0,*5D
1517080072.86,60681,10.31,74212.8,-5.33,-31.67,-31.79,0,*53
1517080074.11,60682,10.31,74210.3,-5.33,-31.61,-31.79,0,*56
1517080075.4,60683,10.31,74214.5,-5.33,-31.61,-31.61,0,*5E
1517080076.66,60684,10.31,74216.5,-5.33,-31.45,-31.51,0,*5C
1517080077.91,60685,10.31,74214.8,-5.33,-31.29,-31.39,0,*59
1517080079.15,60686,10.31,74214.5,-5.35,-31.45,-31.51,0,*58
1517080080.4,60687,10.31,74212.3,-5.35,-31.51,-31.51,0,*5C
1517080081.67,60688,10.31,74210.8,-5.31,-31.39,-31.45,0,*5C
1517080082.93,60689,10.31,74208.8,-5.33,-31.45,-31.51,0,*51
1517080084.17,60690,10.31,74214.0,-5.33,-31.29,-31.45,0,*56
1517080085.4,60691,10.25,74208.8,-5.35,-31.45,-31.51,0,*5E
1517080086.68,60692,10.31,74212.0,-5.33,-31.51,-31.51,0,*5E
1517080087.94,60693,10.31,74210.5,-5.33,-31.45,-31.61,0,*59
1517080089.22,60694,10.31,74212.8,-5.33,-31.61,-31.61,0,*58
1517080090.44,60695,10.31,74208.8,-5.35,-31.45,-31.45,0,*5F
1517080091.69,60696,10.31,74214.0,-5.35,-31.39,-31.51,0,*52
1517080092.93,60697,10.31,74218.8,-5.35,-31.45,-31.51,0,*58
1517080094.19,60698,10.31,74216.0,-5.33,-31.45,-31.61,0,*52
1517080095.43,60699,10.31,74220.8,-5.35,-31.45,-31.51,0,*56
1517080096.68,60700,10.31,74216.3,-5.35,-31.51,-31.61,0,*51
1517080097.96,60701,10.31,74216.0,-5.33,-31.51,-31.61,0,*56
1517080099.2,60702,10.31,74210.8,-5.33,-31.45,-31.45,0,*56
1517080100.46,60703,10.31,74210.5,-5.35,-31.39,-31.39,0,*51